SCP
0 0 0 0 0 0 0 0 1 0 0 0 0 0 0 1 0 0 0 0 0 0 0 0 0 -0 -0
0 0 0 0 0 0 0 0 0 0 0 0 0 0 0 0 0 0 0 0 0 0 0 0 0 -0 -0
0 0 0 0 0 0 0 0 0 1 0 0 0 0 0 0 0 0 0 0 0 0 0 0 0 -0 -0
0 0 0 0 0 0 0 0 0 1 1 1 0 0 0 0 0 0 0 0 0 0 0 0 0 0 0
0 0 0 0 0 0 0 0 0 0 1 1 1 0 0 0 0 0 0 0 0 0 0 0 0 0 0
0 0 0 0 0 0 0 0 0 0 0 1 1 1 1 0 0 0 0 0 0 0 0 0 0 0 0
0 0 0 0 0 0 0 0 0 0 0 0 1 0 0 0 0 0 0 0 0 0 0 0 0 0 0
0 0 0 0 0 0 0 0 0 0 0 0 1 0 -0 0 0 0 0 0 0 0 0 0 0 0 0
0 0 0 0 0 0 0 0 0 0 0 0 0 1 0 0 0 0 0 0 0 0 0 0 0 0 0
0 0 0 0 0 0 0 0 0 0 0 0 0 0 1 1 0 0 0 0 0 0 0 0 0 0 0
0 0 0 0 0 0 0 0 0 0 0 0 0 0 0 1 0 0 0 0 0 0 0 0 0 0 0
0 0 0 0 0 0 0 0 0 0 0 0 0 0 0 1 0 0 0 0 0 0 0 0 0 0 0
0 0 0 0 0 0 0 0 0 0 0 0 0 0 0 0 0 0 0 0 0 0 0 0 0 0 0
0 0 0 0 0 0 0 0 0 0 0 0 0 0 0 0 0 0 0 0 0 0 0 0 0 0 0
0 0 0 0 0 0 0 0 0 0 0 0 0 0 0 0 0 0 0 0 0 0 0 0 0 0 0
0 0 0 0 0 0 0 0 0 0 0 0 0 0 0 0 0 0 0 0 0 0 0 0 0 0 0
Wind_Speed_500mb
26 26 29 32 44 48 46 51 53 53 53 54 52 54 53 53 48 42 34 26 22 28 31 33 32 37 31
26 28 26 31 38 43 48 49 55 57 55 54 55 55 55 56 52 46 40 30 27 29 34 33 35 38 34
34 28 29 24 32 34 40 50 50 53 55 54 55 56 56 57 53 47 40 33 30 32 37 38 38 43 36
38 34 28 28 26 28 25 27 42 52 53 54 55 56 56 60 58 50 41 36 33 40 45 43 43 45 33
47 39 33 27 23 20 23 20 19 37 59 48 47 52 54 60 62 59 48 42 40 40 47 51 50 46 35
51 49 42 39 28 20 21 20 15 15 38 41 51 49 50 54 56 58 48 45 45 49 41 49 52 46 44
46 50 51 45 42 43 30 20 21 17 16 21 23 25 40 51 47 19 32 33 36 47 51 50 52 53 46
50 46 50 51 47 43 49 44 24 26 24 17 18 21 19 34 30 31 28 51 42 44 50 50 52 60 49
49 50 44 50 51 45 48 45 45 39 29 34 23 26 28 37 47 52 47 57 48 43 50 51 51 52 51
38 42 40 36 49 48 46 44 48 43 34 33 38 35 32 36 47 49 58 58 44 46 61 54 50 52 50
43 44 38 35 36 45 40 47 51 60 48 44 40 44 40 38 43 54 65 64 52 51 45 49 50 53 54
43 40 34 32 35 43 35 42 36 50 60 48 45 45 43 44 45 49 61 68 58 60 56 55 56 55 57
39 36 29 20 23 32 44 36 35 37 42 53 50 45 46 46 46 53 62 63 64 62 62 65 73 71 78
41 42 30 36 29 21 26 38 33 33 39 44 39 48 45 51 49 49 56 60 66 80 69 52 33 40 54
36 43 36 33 23 23 23 20 18 39 42 42 46 43 49 48 51 54 60 62 61 64 74 50 28 21 45
29 34 31 24 21 15 13 24 24 40 38 43 48 51 53 39 50 57 62 61 62 63 72 80 54 41 37
Wind_Direction_500mb
283 269 249 247 242 236 224 223 224 227 230 230 230 228 223 217 217 216 220 225 231 220 210 207 200 182 162
289 280 271 250 242 233 232 228 227 227 225 227 232 235 230 224 220 218 220 228 231 223 211 199 193 181 168
285 282 276 272 249 238 228 228 231 231 231 229 229 233 232 227 222 223 224 227 227 222 212 199 193 189 183
281 275 275 278 287 256 234 227 230 231 229 231 231 233 233 225 218 220 222 224 220 217 208 204 202 198 199
280 274 266 270 278 281 263 240 233 237 233 231 235 234 232 232 225 217 210 218 217 208 209 205 205 202 198
276 271 267 256 261 273 272 263 248 241 235 235 237 242 234 234 235 209 203 207 212 205 205 212 206 204 205
275 264 262 259 254 252 264 272 260 247 238 240 234 242 232 245 218 193 182 210 214 207 206 215 212 213 214
280 263 254 256 254 251 254 257 260 270 257 238 215 219 196 230 221 237 250 246 224 211 213 217 218 220 220
284 270 251 247 251 247 250 248 255 257 267 255 232 218 213 213 228 233 225 218 231 228 223 224 220 224 230
291 278 267 246 243 243 250 249 245 254 262 263 252 228 222 226 229 232 218 211 213 239 229 225 229 229 236
277 269 258 244 232 236 240 252 249 250 258 258 256 241 216 225 228 235 222 219 221 230 229 219 217 226 232
284 270 255 257 231 229 230 242 254 245 250 256 246 240 234 233 234 235 236 236 231 221 218 218 241 221 235
285 275 234 209 249 234 232 235 242 242 230 234 251 246 233 233 234 223 236 236 220 219 221 222 220 238 245
277 269 254 218 197 197 228 224 233 242 236 230 231 238 233 231 232 225 229 227 218 231 210 196 180 189 190
274 275 255 238 248 235 232 235 224 234 243 239 236 225 229 232 231 228 229 225 216 225 223 201 190 194 194
271 270 255 231 219 204 203 204 221 244 244 246 242 239 229 218 238 233 233 225 210 208 215 227 218 217 188
Wind_Speed_850mb
26 26 29 32 44 48 46 51 53 53 53 54 52 54 53 53 48 42 34 26 22 28 31 33 32 37 31
26 28 26 31 38 43 48 49 55 57 55 54 55 55 55 56 52 46 40 30 27 29 34 33 35 38 34
34 28 29 24 32 34 40 50 50 53 55 54 55 56 56 57 53 47 40 33 30 32 37 38 38 43 36
38 34 28 28 26 28 25 27 42 52 53 54 55 56 56 60 58 50 41 36 33 40 45 43 43 45 33
47 39 33 27 23 20 23 20 19 37 59 48 47 52 54 60 62 59 48 42 40 40 47 51 50 46 35
51 49 42 39 28 20 21 20 15 15 38 41 51 49 50 54 56 58 48 45 45 49 41 49 52 46 44
46 50 51 45 42 43 30 20 21 17 16 21 23 25 40 51 47 19 32 33 36 47 51 50 52 53 46
50 46 50 51 47 43 49 44 24 26 24 17 18 21 19 34 30 31 28 51 42 44 50 50 52 60 49
49 50 44 50 51 45 48 45 45 39 29 34 23 26 28 37 47 52 47 57 48 43 50 51 51 52 51
38 42 40 36 49 48 46 44 48 43 34 33 38 35 32 36 47 49 58 58 44 46 61 54 50 52 50
43 44 38 35 36 45 40 47 51 60 48 44 40 44 40 38 43 54 65 64 52 51 45 49 50 53 54
43 40 34 32 35 43 35 42 36 50 60 48 45 45 43 44 45 49 61 68 58 60 56 55 56 55 57
39 36 29 20 23 32 44 36 35 37 42 53 50 45 46 46 46 53 62 63 64 62 62 65 73 71 78
41 42 30 36 29 21 26 38 33 33 39 44 39 48 45 51 49 49 56 60 66 80 69 52 33 40 54
36 43 36 33 23 23 23 20 18 39 42 42 46 43 49 48 51 54 60 62 61 64 74 50 28 21 45
29 34 31 24 21 15 13 24 24 40 38 43 48 51 53 39 50 57 62 61 62 63 72 80 54 41 37
Wind_Direction_850mb
283 269 249 247 242 236 224 223 224 227 230 230 230 228 223 217 217 216 220 225 231 220 210 207 200 182 162
289 280 271 250 242 233 232 228 227 227 225 227 232 235 230 224 220 218 220 228 231 223 211 199 193 181 168
285 282 276 272 249 238 228 228 231 231 231 229 229 233 232 227 222 223 224 227 227 222 212 199 193 189 183
281 275 275 278 287 256 234 227 230 231 229 231 231 233 233 225 218 220 222 224 220 217 208 204 202 198 199
280 274 266 270 278 281 263 240 233 237 233 231 235 234 232 232 225 217 210 218 217 208 209 205 205 202 198
276 271 267 256 261 273 272 263 248 241 235 235 237 242 234 234 235 209 203 207 212 205 205 212 206 204 205
275 264 262 259 254 252 264 272 260 247 238 240 234 242 232 245 218 193 182 210 214 207 206 215 212 213 214
280 263 254 256 254 251 254 257 260 270 257 238 215 219 196 230 221 237 250 246 224 211 213 217 218 220 220
284 270 251 247 251 247 250 248 255 257 267 255 232 218 213 213 228 233 225 218 231 228 223 224 220 224 230
291 278 267 246 243 243 250 249 245 254 262 263 252 228 222 226 229 232 218 211 213 239 229 225 229 229 236
277 269 258 244 232 236 240 252 249 250 258 258 256 241 216 225 228 235 222 219 221 230 229 219 217 226 232
284 270 255 257 231 229 230 242 254 245 250 256 246 240 234 233 234 235 236 236 231 221 218 218 241 221 235
285 275 234 209 249 234 232 235 242 242 230 234 251 246 233 233 234 223 236 236 220 219 221 222 220 238 245
277 269 254 218 197 197 228 224 233 242 236 230 231 238 233 231 232 225 229 227 218 231 210 196 180 189 190
274 275 255 238 248 235 232 235 224 234 243 239 236 225 229 232 231 228 229 225 216 225 223 201 190 194 194
271 270 255 231 219 204 203 204 221 244 244 246 242 239 229 218 238 233 233 225 210 208 215 227 218 217 188